| time (UTC) | temp F | wind direction | speed MPH | gust MPH | rain 1hr in | rain 24hr in | rain mn in | humidity % | barometer mb |
| 20260505090043 | 69 | 0 | 3.0 | 7.0 | 0.00 | 0.00 | 0.00 | 74 | 1001.7 |
| 20260505085528 | 69 | 75 | 1.0 | 7.0 | 0.00 | 0.00 | 0.00 | 74 | 1001.7 |
| 20260505085028 | 69 | 340 | 1.0 | 7.0 | 0.00 | 0.00 | 0.00 | 74 | 1001.7 |
| 20260505084544 | 69 | 87 | 1.0 | 8.0 | 0.00 | 0.00 | 0.00 | 74 | 1001.7 |
| 20260505084027 | 69 | 309 | 1.0 | 8.0 | 0.00 | 0.00 | 0.00 | 74 | 1001.7 |
| 20260505083528 | 69 | 46 | 2.0 | 8.0 | 0.00 | 0.00 | 0.00 | 74 | 1001.7 |
| 20260505083041 | 69 | 60 | 2.0 | 8.0 | 0.00 | 0.00 | 0.00 | 74 | 1001.7 |
| 20260505082527 | 69 | 79 | 3.0 | 8.0 | 0.00 | 0.00 | 0.00 | 73 | 1001.9 |
| 20260505082027 | 69 | 77 | 3.0 | 6.0 | 0.00 | 0.00 | 0.00 | 73 | 1001.9 |
| 20260505081539 | 69 | 94 | 1.0 | 7.0 | 0.00 | 0.00 | 0.00 | 73 | 1002.0 |
| 20260505081027 | 69 | 150 | 2.0 | 7.0 | 0.00 | 0.00 | 0.00 | 73 | 1002.0 |
| 20260505080529 | 69 | 70 | 4.0 | 9.0 | 0.00 | 0.00 | 0.00 | 73 | 1001.8 |
| 20260505080058 | 69 | 98 | 4.0 | 12.0 | 0.00 | 0.00 | 0.00 | 73 | 1002.1 |
| 20260505075528 | 69 | 113 | 4.0 | 12.0 | 0.00 | 0.00 | 0.00 | 73 | 1002.1 |
| 20260505075028 | 69 | 89 | 4.0 | 9.0 | 0.00 | 0.00 | 0.00 | 72 | 1002.1 |
| 20260505074544 | 69 | 0 | 2.0 | 10.0 | 0.00 | 0.00 | 0.00 | 73 | 1002.2 |
| 20260505074028 | 69 | 70 | 3.0 | 10.0 | 0.00 | 0.00 | 0.00 | 72 | 1002.3 |
| 20260505073529 | 69 | 86 | 3.0 | 10.0 | 0.00 | 0.00 | 0.00 | 72 | 1002.4 |
| 20260505073047 | 70 | 77 | 1.0 | 8.0 | 0.00 | 0.00 | 0.00 | 72 | 1002.5 |
| 20260505072531 | 70 | 64 | 4.0 | 8.0 | 0.00 | 0.00 | 0.00 | 72 | 1002.5 |
| 20260505072028 | 70 | 72 | 4.0 | 7.0 | 0.00 | 0.00 | 0.00 | 72 | 1002.6 |
| 20260505071551 | 70 | 84 | 3.0 | 7.0 | 0.00 | 0.00 | 0.00 | 71 | 1002.7 |
| 20260505071028 | 70 | 76 | 2.0 | 5.0 | 0.00 | 0.00 | 0.00 | 72 | 1002.7 |
| 20260505070530 | 70 | 77 | 1.0 | 4.0 | 0.00 | 0.00 | 0.00 | 72 | 1002.7 |
| 20260505070042 | 70 | 86 | 1.0 | 4.0 | 0.00 | 0.00 | 0.00 | 71 | 1002.7 |
| 20260505065527 | 70 | 86 | 1.0 | 6.0 | 0.00 | 0.00 | 0.00 | 72 | 1002.6 |
| 20260505065027 | 70 | 87 | 2.0 | 6.0 | 0.00 | 0.00 | 0.00 | 72 | 1002.8 |
| 20260505064545 | 70 | 51 | 2.0 | 4.0 | 0.00 | 0.00 | 0.00 | 72 | 1003.0 |
| 20260505064028 | 70 | 82 | 1.0 | 4.0 | 0.00 | 0.00 | 0.00 | 72 | 1003.2 |
| 20260505063528 | 70 | 64 | 2.0 | 4.0 | 0.00 | 0.00 | 0.00 | 72 | 1003.1 |
| 20260505063048 | 70 | 94 | 1.0 | 3.0 | 0.00 | 0.00 | 0.00 | 72 | 1003.1 |
| 20260505062528 | 70 | 23 | 0.0 | 3.0 | 0.00 | 0.00 | 0.00 | 71 | 1003.2 |
| 20260505062029 | 70 | 65 | 1.0 | 4.0 | 0.00 | 0.00 | 0.00 | 71 | 1002.9 |
| 20260505061604 | 70 | 167 | 0.0 | 4.0 | 0.00 | 0.00 | 0.00 | 71 | 1002.6 |
| 20260505061027 | 70 | 174 | 1.0 | 5.0 | 0.00 | 0.00 | 0.00 | 71 | 1002.3 |
| 20260505060531 | 70 | 0 | 1.0 | 5.0 | 0.00 | 0.00 | 0.00 | 71 | 1002.2 |
| 20260505060044 | 70 | 58 | 1.0 | 5.0 | 0.00 | 0.00 | 0.00 | 70 | 1002.1 |
| 20260505055526 | 70 | 160 | 1.0 | 6.0 | 0.00 | 0.00 | 0.00 | 70 | 1002.1 |
| 20260505055027 | 70 | 297 | 1.0 | 7.0 | 0.00 | 0.00 | 0.00 | 70 | 1002.1 |
| 20260505054544 | 70 | 174 | 1.0 | 7.0 | 0.00 | 0.00 | 0.00 | 70 | 1002.2 |
| 20260505054027 | 70 | 170 | 1.0 | 6.0 | 0.00 | 0.00 | 0.00 | 70 | 1002.2 |
| 20260505053527 | 70 | 167 | 3.0 | 6.0 | 0.00 | 0.00 | 0.00 | 70 | 1002.2 |
| 20260505053046 | 70 | 127 | 2.0 | 6.0 | 0.00 | 0.00 | 0.00 | 70 | 1002.5 |
| 20260505052531 | 70 | 172 | 1.0 | 6.0 | 0.00 | 0.00 | 0.00 | 69 | 1002.5 |
| 20260505052027 | 71 | 0 | 0.0 | 8.0 | 0.00 | 0.00 | 0.00 | 69 | 1002.7 |
| 20260505051605 | 71 | 103 | 1.0 | 8.0 | 0.00 | 0.00 | 0.00 | 69 | 1002.5 |
| 20260505051026 | 71 | 37 | 2.0 | 8.0 | 0.00 | 0.00 | 0.00 | 69 | 1002.5 |
| 20260505050527 | 70 | 0 | 1.0 | 6.0 | 0.00 | 0.00 | 0.00 | 69 | 1002.5 |
| 20260505041548 | 71 | 165 | 1.0 | 7.0 | 0.00 | 0.00 | 0.00 | 66 | 1002.3 |
| 20260505041030 | 71 | 136 | 2.0 | 8.0 | 0.00 | 0.00 | 0.00 | 66 | 1002.5 |
| 20260505040528 | 71 | 227 | 2.0 | 8.0 | 0.00 | 0.00 | 0.00 | 66 | 1002.6 |
| 20260505040046 | 71 | 105 | 3.0 | 12.0 | 0.00 | 0.00 | 0.00 | 66 | 1002.7 |
| 20260505035529 | 71 | 106 | 2.0 | 12.0 | 0.00 | 0.00 | 0.00 | 66 | 1002.9 |
| 20260505035027 | 71 | 160 | 2.0 | 8.0 | 0.00 | 0.00 | 0.00 | 66 | 1002.8 |
| 20260505034538 | 70 | 131 | 2.0 | 8.0 | 0.00 | 0.00 | 0.00 | 66 | 1002.6 |
| 20260505034033 | 70 | 129 | 3.0 | 10.0 | 0.00 | 0.00 | 0.00 | 66 | 1002.8 |
| 20260505033533 | 71 | 188 | 3.0 | 10.0 | 0.00 | 0.00 | 0.00 | 66 | 1003.1 |
| 20260505033042 | 71 | 160 | 3.0 | 10.0 | 0.00 | 0.00 | 0.00 | 65 | 1003.0 |
| 20260505032529 | 71 | 145 | 3.0 | 8.0 | 0.00 | 0.00 | 0.00 | 63 | 1003.2 |
| 20260505032027 | 71 | 193 | 2.0 | 8.0 | 0.00 | 0.00 | 0.00 | 63 | 1003.3 |
| 20260505031540 | 71 | 58 | 3.0 | 8.0 | 0.00 | 0.00 | 0.00 | 62 | 1003.3 |
| 20260505031027 | 71 | 102 | 3.0 | 8.0 | 0.00 | 0.00 | 0.00 | 62 | 1003.4 |
| 20260505030530 | 71 | 158 | 2.0 | 7.0 | 0.00 | 0.00 | 0.00 | 62 | 1003.4 |
| 20260505030038 | 71 | 120 | 2.0 | 9.0 | 0.00 | 0.00 | 0.00 | 62 | 1003.4 |
| 20260505025529 | 72 | 0 | 3.0 | 9.0 | 0.00 | 0.00 | 0.00 | 62 | 1003.6 |
| 20260505025029 | 72 | 140 | 2.0 | 8.0 | 0.00 | 0.00 | 0.00 | 62 | 1003.6 |
| 20260505024547 | 72 | 311 | 2.0 | 7.0 | 0.00 | 0.00 | 0.00 | 61 | 1003.7 |
| 20260505024030 | 72 | 136 | 2.0 | 7.0 | 0.00 | 0.00 | 0.00 | 61 | 1003.6 |
| 20260505023530 | 72 | 153 | 3.0 | 7.0 | 0.00 | 0.00 | 0.00 | 61 | 1003.6 |
| 20260505023044 | 72 | 131 | 2.0 | 7.0 | 0.00 | 0.00 | 0.00 | 60 | 1003.6 |
| 20260505022527 | 72 | 156 | 1.0 | 7.0 | 0.00 | 0.00 | 0.00 | 60 | 1003.7 |
| 20260505022029 | 72 | 236 | 1.0 | 8.0 | 0.00 | 0.00 | 0.00 | 60 | 1003.5 |
| 20260505021539 | 73 | 215 | 3.0 | 8.0 | 0.00 | 0.00 | 0.00 | 60 | 1003.5 |
| 20260505021029 | 73 | 124 | 1.0 | 6.0 | 0.00 | 0.00 | 0.00 | 60 | 1003.6 |
| 20260505020527 | 73 | 139 | 1.0 | 9.0 | 0.00 | 0.00 | 0.00 | 60 | 1003.5 |
| 20260505020038 | 73 | 151 | 2.0 | 9.0 | 0.00 | 0.00 | 0.00 | 59 | 1003.6 |
| 20260505015528 | 73 | 153 | 2.0 | 8.0 | 0.00 | 0.00 | 0.00 | 59 | 1003.6 |
| 20260505015030 | 73 | 76 | 2.0 | 8.0 | 0.00 | 0.00 | 0.00 | 59 | 1003.6 |
| 20260505014538 | 73 | 233 | 4.0 | 9.0 | 0.00 | 0.00 | 0.00 | 59 | 1003.5 |
| 20260505014029 | 74 | 127 | 2.0 | 10.0 | 0.00 | 0.00 | 0.00 | 59 | 1003.4 |
| 20260505013527 | 74 | 136 | 4.0 | 10.0 | 0.00 | 0.00 | 0.00 | 59 | 1003.5 |
| 20260505013044 | 74 | 175 | 1.0 | 8.0 | 0.00 | 0.00 | 0.00 | 59 | 1003.5 |
| 20260505012526 | 74 | 102 | 3.0 | 8.0 | 0.00 | 0.00 | 0.00 | 59 | 1003.5 |
| 20260505012031 | 74 | 134 | 2.0 | 8.0 | 0.00 | 0.00 | 0.00 | 59 | 1003.4 |
| 20260505011544 | 75 | 150 | 2.0 | 8.0 | 0.00 | 0.00 | 0.00 | 58 | 1003.4 |
| 20260505011027 | 75 | 292 | 1.0 | 6.0 | 0.00 | 0.00 | 0.00 | 58 | 1003.3 |
| 20260505010530 | 75 | 112 | 1.0 | 5.0 | 0.00 | 0.00 | 0.00 | 58 | 1003.3 |
| 20260505010053 | 75 | 139 | 1.0 | 11.0 | 0.00 | 0.00 | 0.00 | 58 | 1003.3 |
| 20260505005530 | 75 | 210 | 1.0 | 11.0 | 0.00 | 0.00 | 0.00 | 58 | 1003.3 |
| 20260505005030 | 76 | 167 | 1.0 | 7.0 | 0.00 | 0.00 | 0.00 | 58 | 1003.3 |
| 20260505004541 | 76 | 149 | 1.0 | 7.0 | 0.00 | 0.00 | 0.00 | 57 | 1003.4 |
| 20260505004028 | 76 | 115 | 1.0 | 7.0 | 0.00 | 0.00 | 0.00 | 57 | 1003.3 |
| 20260505003528 | 76 | 167 | 2.0 | 7.0 | 0.00 | 0.00 | 0.00 | 56 | 1003.2 |
| 20260505003041 | 76 | 236 | 2.0 | 7.0 | 0.00 | 0.00 | 0.00 | 56 | 1003.4 |
| 20260505002529 | 77 | 225 | 2.0 | 7.0 | 0.00 | 0.00 | 0.00 | 55 | 1003.3 |
| 20260505002029 | 77 | 155 | 2.0 | 7.0 | 0.00 | 0.00 | 0.00 | 55 | 1003.5 |
| 20260505001540 | 77 | 339 | 1.0 | 7.0 | 0.00 | 0.00 | 0.00 | 55 | 1003.5 |
| 20260505001029 | 77 | 191 | 1.0 | 7.0 | 0.00 | 0.00 | 0.00 | 55 | 1003.6 |
| 20260505000530 | 77 | 0 | 1.0 | 8.0 | 0.00 | 0.00 | 0.00 | 55 | 1003.7 |
| 20260505000044 | 78 | 283 | 0.0 | 8.0 | 0.00 | 0.00 | 0.00 | 55 | 1003.7 |
| 20260504235527 | 78 | 247 | 2.0 | 9.0 | 0.00 | 0.00 | 0.00 | 54 | 1003.7 |
| 20260504235031 | 78 | 143 | 1.0 | 9.0 | 0.00 | 0.00 | 0.00 | 54 | 1003.8 |
| 20260504234545 | 78 | 69 | 1.0 | 9.0 | 0.00 | 0.00 | 0.00 | 54 | 1003.8 |
| 20260504234030 | 78 | 0 | 2.0 | 11.0 | 0.00 | 0.00 | 0.00 | 54 | 1003.8 |
| 20260504233528 | 78 | 113 | 2.0 | 11.0 | 0.00 | 0.00 | 0.00 | 54 | 1003.7 |
| 20260504233052 | 78 | 247 | 2.0 | 9.0 | 0.00 | 0.00 | 0.00 | 54 | 1003.7 |
| 20260504232529 | 79 | 151 | 1.0 | 9.0 | 0.00 | 0.00 | 0.00 | 54 | 1003.7 |
| 20260504232029 | 79 | 92 | 2.0 | 9.0 | 0.00 | 0.00 | 0.00 | 53 | 1003.7 |
| 20260504231545 | 79 | 264 | 2.0 | 8.0 | 0.00 | 0.00 | 0.00 | 53 | 1003.8 |
| 20260504231028 | 79 | 122 | 1.0 | 8.0 | 0.00 | 0.00 | 0.00 | 54 | 1003.7 |
| 20260504230530 | 79 | 212 | 1.0 | 8.0 | 0.00 | 0.00 | 0.00 | 53 | 1003.8 |
| 20260504230052 | 79 | 227 | 2.0 | 12.0 | 0.00 | 0.00 | 0.00 | 53 | 1003.8 |
| 20260504225529 | 79 | 233 | 1.0 | 12.0 | 0.00 | 0.00 | 0.00 | 52 | 1003.9 |
| 20260504225029 | 80 | 47 | 4.0 | 12.0 | 0.00 | 0.00 | 0.00 | 52 | 1003.8 |
| 20260504224545 | 80 | 230 | 2.0 | 10.0 | 0.00 | 0.00 | 0.00 | 52 | 1003.8 |
| 20260504224029 | 80 | 0 | 2.0 | 10.0 | 0.00 | 0.00 | 0.00 | 51 | 1003.9 |
| 20260504223530 | 80 | 226 | 2.0 | 10.0 | 0.00 | 0.00 | 0.00 | 52 | 1003.8 |
| 20260504223045 | 80 | 160 | 2.0 | 10.0 | 0.00 | 0.00 | 0.00 | 51 | 1003.7 |
| 20260504222529 | 80 | 176 | 2.0 | 12.0 | 0.00 | 0.00 | 0.00 | 51 | 1003.7 |
| 20260504222029 | 80 | 229 | 2.0 | 12.0 | 0.00 | 0.00 | 0.00 | 51 | 1003.7 |
| 20260504221543 | 80 | 49 | 3.0 | 11.0 | 0.00 | 0.00 | 0.00 | 51 | 1003.7 |
| 20260504221100 | 81 | 221 | 3.0 | 9.0 | 0.00 | 0.00 | 0.00 | 51 | 1003.6 |
| 20260504220528 | 81 | 171 | 2.0 | 12.0 | 0.00 | 0.00 | 0.00 | 51 | 1003.5 |
| 20260504220051 | 81 | 181 | 2.0 | 12.0 | 0.00 | 0.00 | 0.00 | 50 | 1003.6 |
| 20260504215529 | 81 | 96 | 2.0 | 12.0 | 0.00 | 0.00 | 0.00 | 49 | 1003.7 |
| 20260504215030 | 81 | 67 | 2.0 | 9.0 | 0.00 | 0.00 | 0.00 | 50 | 1003.8 |
| 20260504214550 | 82 | 91 | 1.0 | 9.0 | 0.00 | 0.00 | 0.00 | 50 | 1003.9 |
| 20260504214032 | 82 | 169 | 1.0 | 8.0 | 0.00 | 0.00 | 0.00 | 51 | 1003.8 |
| 20260504213533 | 81 | 129 | 1.0 | 8.0 | 0.00 | 0.00 | 0.00 | 50 | 1003.8 |
| 20260504213047 | 81 | 218 | 1.0 | 9.0 | 0.00 | 0.00 | 0.00 | 50 | 1003.8 |
| 20260504212530 | 81 | 250 | 3.0 | 9.0 | 0.00 | 0.00 | 0.00 | 49 | 1003.9 |
| 20260504212030 | 82 | 209 | 2.0 | 13.0 | 0.00 | 0.00 | 0.00 | 49 | 1003.9 |
| 20260504211544 | 82 | 333 | 3.0 | 13.0 | 0.00 | 0.00 | 0.00 | 49 | 1003.9 |
| 20260504211029 | 82 | 219 | 3.0 | 13.0 | 0.00 | 0.00 | 0.00 | 48 | 1003.9 |
| 20260504210529 | 82 | 119 | 3.0 | 6.0 | 0.00 | 0.00 | 0.00 | 48 | 1004.0 |
| 20260504210054 | 82 | 150 | 1.0 | 10.0 | 0.00 | 0.00 | 0.00 | 49 | 1004.1 |
| 20260504205529 | 82 | 39 | 2.0 | 11.0 | 0.00 | 0.00 | 0.00 | 49 | 1004.1 |
| 20260504205028 | 82 | 128 | 3.0 | 11.0 | 0.00 | 0.00 | 0.00 | 47 | 1004.1 |
| 20260504204548 | 82 | 195 | 1.0 | 11.0 | 0.00 | 0.00 | 0.00 | 48 | 1004.3 |
| 20260504204029 | 82 | 49 | 2.0 | 11.0 | 0.00 | 0.00 | 0.00 | 48 | 1004.3 |
| 20260504203529 | 82 | 250 | 3.0 | 11.0 | 0.00 | 0.00 | 0.00 | 48 | 1004.4 |
| 20260504203100 | 83 | 290 | 1.0 | 9.0 | 0.00 | 0.00 | 0.00 | 48 | 1004.5 |
| 20260504202530 | 83 | 241 | 2.0 | 12.0 | 0.00 | 0.00 | 0.00 | 48 | 1004.6 |
| 20260504202029 | 83 | 194 | 2.0 | 12.0 | 0.00 | 0.00 | 0.00 | 48 | 1004.6 |
| 20260504201540 | 83 | 214 | 2.0 | 12.0 | 0.00 | 0.00 | 0.00 | 47 | 1004.8 |
| 20260504201027 | 82 | 118 | 2.0 | 11.0 | 0.00 | 0.00 | 0.00 | 48 | 1004.7 |
| 20260504200527 | 83 | 134 | 2.0 | 9.0 | 0.00 | 0.00 | 0.00 | 47 | 1004.9 |
| 20260504200046 | 83 | 262 | 3.0 | 9.0 | 0.00 | 0.00 | 0.00 | 46 | 1004.9 |
| 20260504195529 | 83 | 172 | 2.0 | 8.0 | 0.00 | 0.00 | 0.00 | 47 | 1005.0 |
| 20260504195029 | 83 | 346 | 2.0 | 8.0 | 0.00 | 0.00 | 0.00 | 48 | 1005.0 |
| 20260504194546 | 83 | 218 | 1.0 | 10.0 | 0.00 | 0.00 | 0.00 | 47 | 1005.1 |
| 20260504194028 | 83 | 144 | 3.0 | 10.0 | 0.00 | 0.00 | 0.00 | 46 | 1005.0 |
| 20260504193532 | 83 | 267 | 2.0 | 9.0 | 0.00 | 0.00 | 0.00 | 47 | 1005.2 |
| 20260504193048 | 83 | 210 | 3.0 | 9.0 | 0.00 | 0.00 | 0.00 | 47 | 1005.1 |
| 20260504192529 | 83 | 103 | 2.0 | 8.0 | 0.00 | 0.00 | 0.00 | 48 | 1005.2 |
| 20260504192029 | 82 | 224 | 2.0 | 16.0 | 0.00 | 0.00 | 0.00 | 48 | 1005.2 |
| 20260504191542 | 82 | 204 | 3.0 | 18.0 | 0.00 | 0.00 | 0.00 | 47 | 1005.2 |
| 20260504191029 | 82 | 222 | 4.0 | 18.0 | 0.00 | 0.00 | 0.00 | 47 | 1005.2 |
| 20260504190527 | 82 | 200 | 3.0 | 12.0 | 0.00 | 0.00 | 0.00 | 47 | 1005.3 |
| 20260504190106 | 82 | 217 | 5.0 | 16.0 | 0.00 | 0.00 | 0.00 | 47 | 1005.4 |
| 20260504185534 | 83 | 231 | 4.0 | 16.0 | 0.00 | 0.00 | 0.00 | 48 | 1005.4 |
| 20260504185029 | 83 | 207 | 4.0 | 13.0 | 0.00 | 0.00 | 0.00 | 47 | 1005.6 |
| 20260504184543 | 83 | 206 | 3.0 | 11.0 | 0.00 | 0.00 | 0.00 | 48 | 1005.6 |
| 20260504184029 | 83 | 84 | 3.0 | 11.0 | 0.00 | 0.00 | 0.00 | 47 | 1005.7 |
| 20260504183529 | 83 | 240 | 2.0 | 11.0 | 0.00 | 0.00 | 0.00 | 48 | 1005.7 |
| 20260504183041 | 83 | 258 | 3.0 | 11.0 | 0.00 | 0.00 | 0.00 | 47 | 1005.8 |
| 20260504182531 | 83 | 233 | 1.0 | 10.0 | 0.00 | 0.00 | 0.00 | 48 | 1005.8 |
| 20260504182031 | 82 | 118 | 1.0 | 10.0 | 0.00 | 0.00 | 0.00 | 49 | 1005.9 |
| 20260504181542 | 82 | 187 | 4.0 | 17.0 | 0.00 | 0.00 | 0.00 | 47 | 1006.1 |
| 20260504181027 | 82 | 95 | 4.0 | 17.0 | 0.00 | 0.00 | 0.00 | 47 | 1006.1 |
| 20260504180531 | 82 | 8 | 2.0 | 11.0 | 0.00 | 0.00 | 0.00 | 47 | 1006.1 |
| 20260504180045 | 82 | 12 | 2.0 | 11.0 | 0.00 | 0.00 | 0.00 | 48 | 1006.2 |
| 20260504175528 | 82 | 241 | 2.0 | 11.0 | 0.00 | 0.00 | 0.00 | 47 | 1006.3 |
| 20260504175029 | 82 | 119 | 4.0 | 11.0 | 0.00 | 0.00 | 0.00 | 46 | 1006.5 |
| 20260504174542 | 82 | 255 | 2.0 | 12.0 | 0.00 | 0.00 | 0.00 | 49 | 1006.5 |
| 20260504174029 | 82 | 283 | 2.0 | 12.0 | 0.00 | 0.00 | 0.00 | 47 | 1006.6 |
| 20260504173528 | 82 | 89 | 3.0 | 10.0 | 0.00 | 0.00 | 0.00 | 47 | 1006.8 |
| 20260504173040 | 81 | 102 | 3.0 | 14.0 | 0.00 | 0.00 | 0.00 | 48 | 1006.7 |
| 20260504172527 | 81 | 211 | 3.0 | 14.0 | 0.00 | 0.00 | 0.00 | 48 | 1006.8 |
| 20260504172030 | 81 | 25 | 3.0 | 14.0 | 0.00 | 0.00 | 0.00 | 47 | 1006.8 |
| 20260504171543 | 81 | 260 | 4.0 | 11.0 | 0.00 | 0.00 | 0.00 | 47 | 1006.8 |
| 20260504171031 | 81 | 328 | 2.0 | 8.0 | 0.00 | 0.00 | 0.00 | 49 | 1006.9 |
| 20260504170528 | 81 | 255 | 2.0 | 8.0 | 0.00 | 0.00 | 0.00 | 48 | 1006.9 |
| 20260504151029 | 75 | 256 | 2.0 | 7.0 | 0.00 | 0.00 | 0.00 | 50 | 1007.9 |
| 20260504150531 | 74 | 267 | 2.0 | 8.0 | 0.00 | 0.00 | 0.00 | 51 | 1008.1 |
| 20260504141026 | 71 | 166 | 1.0 | 8.0 | 0.00 | 0.00 | 0.00 | 54 | 1008.7 |
| 20260504140529 | 70 | 167 | 3.0 | 8.0 | 0.00 | 0.00 | 0.00 | 54 | 1008.6 |
| 20260504130527 | 67 | 271 | 0.0 | 7.0 | 0.00 | 0.00 | 0.00 | 59 | 1009.0 |
| 20260504110527 | 63 | 0 | 0.0 | 3.0 | 0.00 | 0.00 | 0.00 | 61 | 1008.9 |
| 20260504100527 | 64 | 140 | 1.0 | 8.0 | 0.00 | 0.00 | 0.00 | 58 | 1009.4 |